TLM581 VTCC-VTBU

Flight info

Callsign TLM581
Flight time 1h 0m
Altitude 33000
Route ENBAT2S ENBAT A464 BKK M904 KIGOB
Aircraft B739/M-SDE2E3FGHIRWXY/LB1

Departure

Time 2026-04-18 07:22
Airport Chiang Mai International Airport (VTCC)

Arrival

Time 2026-04-18 08:22
Airport U-Tapao–Rayong–Pattaya International Airport (VTBU)
Time Latitude Longitude Altitude Speed Heading
2026-04-18 07:02 18.76976 98.96736 1031 ft 0 kts 91°
2026-04-18 07:13 18.76976 98.96728 1031 ft 4 kts 90°
2026-04-18 07:14 18.76975 98.96700 1031 ft 4 kts 82°
2026-04-18 07:14 18.76969 98.96672 1031 ft 4 kts 68°
2026-04-18 07:14 18.76956 98.96650 1031 ft 4 kts 27°
2026-04-18 07:14 18.76946 98.96646 1031 ft 0 kts 359°
2026-04-18 07:16 18.76948 98.96646 1031 ft 2 kts 359°
2026-04-18 07:17 18.76996 98.96640 1031 ft 10 kts 345°
2026-04-18 07:17 18.77048 98.96615 1031 ft 15 kts 328°
2026-04-18 07:17 18.77136 98.96533 1031 ft 18 kts 321°
2026-04-18 07:17 18.77256 98.96517 1031 ft 17 kts
2026-04-18 07:18 18.77377 98.96519 1031 ft 17 kts
2026-04-18 07:18 18.77490 98.96519 1031 ft 16 kts
2026-04-18 07:18 18.77601 98.96519 1031 ft 16 kts 359°
2026-04-18 07:18 18.77707 98.96520 1031 ft 15 kts
2026-04-18 07:19 18.77808 98.96520 1031 ft 14 kts
2026-04-18 07:19 18.77906 98.96520 1031 ft 14 kts 360°
2026-04-18 07:19 18.77999 98.96520 1031 ft 13 kts
2026-04-18 07:19 18.78088 98.96518 1031 ft 13 kts 357°
2026-04-18 07:20 18.78175 98.96480 1031 ft 16 kts 328°
2026-04-18 07:20 18.78279 98.96415 1031 ft 18 kts 329°
2026-04-18 07:20 18.78358 98.96351 1031 ft 9 kts 298°
2026-04-18 07:20 18.78364 98.96302 1031 ft 7 kts 255°
2026-04-18 07:21 18.78322 98.96292 1031 ft 7 kts 175°
2026-04-18 07:21 18.78320 98.96292 1031 ft 0 kts 177°
2026-04-18 07:21 18.78230 98.96293 1031 ft 45 kts 181°
2026-04-18 07:22 18.77632 98.96291 1031 ft 123 kts 180°
2026-04-18 07:22 18.76570 98.96288 1094 ft 176 kts 179°
2026-04-18 07:22 18.75317 98.96328 1796 ft 180 kts 179°
2026-04-18 07:22 18.74071 98.96357 2661 ft 176 kts 184°
2026-04-18 07:23 18.72791 98.96340 3126 ft 196 kts 183°
2026-04-18 07:23 18.71337 98.96317 3349 ft 222 kts 182°
2026-04-18 07:23 18.69713 98.96300 3586 ft 241 kts 181°
2026-04-18 07:23 18.68001 98.96282 4029 ft 250 kts 181°
2026-04-18 07:24 18.66198 98.96268 4328 ft 268 kts 181°
2026-04-18 07:24 18.64312 98.96258 5040 ft 272 kts 180°
2026-04-18 07:24 18.62419 98.96251 5921 ft 273 kts 180°
2026-04-18 07:24 18.60509 98.96247 6710 ft 275 kts 180°
2026-04-18 07:25 18.58576 98.96244 7439 ft 279 kts 181°
2026-04-18 07:25 18.56639 98.96289 8281 ft 279 kts 178°
2026-04-18 07:25 18.54672 98.96337 8971 ft 285 kts 182°
2026-04-18 07:25 18.52691 98.96297 9804 ft 286 kts 183°
2026-04-18 07:26 18.50681 98.96309 10381 ft 298 kts 174°
2026-04-18 07:26 18.48650 98.97094 10534 ft 325 kts 153°
2026-04-18 07:26 18.46656 98.98334 10917 ft 339 kts 149°
2026-04-18 07:26 18.44632 98.99662 11524 ft 345 kts 150°
2026-04-18 07:27 18.42571 99.00971 12226 ft 348 kts 151°
2026-04-18 07:27 18.40452 99.02229 12917 ft 352 kts 152°
2026-04-18 07:27 18.38327 99.03468 13599 ft 357 kts 152°
2026-04-18 07:27 18.36141 99.04749 14190 ft 363 kts 152°
2026-04-18 07:28 18.33926 99.06062 14763 ft 370 kts 151°
2026-04-18 07:28 18.31685 99.07404 15346 ft 371 kts 151°
2026-04-18 07:28 18.29437 99.08757 15635 ft 372 kts 150°
2026-04-18 07:28 18.27192 99.10111 15811 ft 375 kts 150°
2026-04-18 07:29 18.24908 99.11489 15817 ft 381 kts 150°
2026-04-18 07:29 18.22589 99.12889 16148 ft 388 kts 150°
2026-04-18 07:29 18.20191 99.14334 16292 ft 406 kts 150°
2026-04-18 07:29 18.17692 99.15840 16413 ft 422 kts 150°
2026-04-18 07:30 18.15077 99.17323 16620 ft 431 kts 156°
2026-04-18 07:30 18.12218 99.18328 17017 ft 435 kts 166°
2026-04-18 07:30 18.09270 99.19084 17472 ft 438 kts 167°
2026-04-18 07:30 18.06302 99.19839 17896 ft 441 kts 166°
2026-04-18 07:31 18.03347 99.20769 18252 ft 445 kts 161°
2026-04-18 07:31 18.00438 99.21862 18882 ft 439 kts 160°
2026-04-18 07:31 17.97615 99.22965 19765 ft 428 kts 160°
2026-04-18 07:31 17.94850 99.24020 20703 ft 418 kts 161°
2026-04-18 07:32 17.92124 99.25021 21491 ft 414 kts 162°
2026-04-18 07:32 17.89390 99.25992 22010 ft 417 kts 162°
2026-04-18 07:32 17.86617 99.26953 22464 ft 421 kts 162°
2026-04-18 07:32 17.83829 99.27908 22993 ft 423 kts 162°
2026-04-18 07:33 17.81021 99.28867 23446 ft 426 kts 162°
2026-04-18 07:33 17.78186 99.29836 23813 ft 430 kts 162°
2026-04-18 07:33 17.75333 99.30812 24231 ft 432 kts 162°
2026-04-18 07:33 17.72472 99.31792 24620 ft 435 kts 162°
2026-04-18 07:34 17.69586 99.32781 24970 ft 438 kts 162°
2026-04-18 07:34 17.66674 99.33779 25352 ft 441 kts 162°
2026-04-18 07:34 17.63748 99.34782 25725 ft 444 kts 162°
2026-04-18 07:34 17.60800 99.35792 26097 ft 447 kts 162°
2026-04-18 07:35 17.57838 99.36807 26483 ft 449 kts 162°
2026-04-18 07:35 17.54891 99.37815 26819 ft 453 kts 162°
2026-04-18 07:35 17.51824 99.38865 26884 ft 463 kts 162°
2026-04-18 07:35 17.48728 99.39923 26964 ft 472 kts 162°
2026-04-18 07:36 17.45575 99.40992 27025 ft 480 kts 162°
2026-04-18 07:36 17.42373 99.42067 27086 ft 486 kts 162°
2026-04-18 07:36 17.39137 99.43149 27210 ft 491 kts 162°
2026-04-18 07:36 17.35873 99.44239 27422 ft 492 kts 162°
2026-04-18 07:37 17.32661 99.45312 27741 ft 491 kts 162°
2026-04-18 07:37 17.29408 99.46400 28107 ft 490 kts 162°
2026-04-18 07:37 17.26165 99.47486 28463 ft 489 kts 162°
2026-04-18 07:37 17.22880 99.48586 28793 ft 490 kts 162°
2026-04-18 07:38 17.19678 99.49658 29147 ft 490 kts 162°
2026-04-18 07:38 17.16433 99.50745 29507 ft 490 kts 162°
2026-04-18 07:38 17.13189 99.51830 29890 ft 489 kts 162°
2026-04-18 07:38 17.09949 99.52913 30226 ft 489 kts 162°
2026-04-18 07:39 17.06709 99.53996 30558 ft 489 kts 162°
2026-04-18 07:39 17.03471 99.55078 30898 ft 489 kts 162°
2026-04-18 07:39 17.00232 99.56159 31258 ft 489 kts 163°
2026-04-18 07:39 16.96992 99.57241 31635 ft 488 kts 163°
2026-04-18 07:40 16.93761 99.58319 32013 ft 488 kts 163°
2026-04-18 07:40 16.90528 99.59398 32394 ft 488 kts 163°
2026-04-18 07:40 16.87292 99.60477 32792 ft 488 kts 163°
2026-04-18 07:40 16.84060 99.61555 33203 ft 487 kts 163°
2026-04-18 07:41 16.80828 99.62632 33619 ft 486 kts 163°
2026-04-18 07:41 16.77613 99.63703 34083 ft 483 kts 163°
2026-04-18 07:41 16.74424 99.64765 34529 ft 480 kts 163°
2026-04-18 07:41 16.71245 99.65824 34781 ft 481 kts 163°
2026-04-18 07:42 16.64791 99.67970 34792 ft 491 kts 163°
2026-04-18 07:42 16.58262 99.70140 34797 ft 500 kts 163°
2026-04-18 07:43 16.51599 99.72354 34792 ft 505 kts 163°
2026-04-18 07:43 16.44839 99.74600 34784 ft 507 kts 163°
2026-04-18 07:44 16.38169 99.76814 34780 ft 506 kts 163°
2026-04-18 07:44 16.31458 99.79047 34782 ft 506 kts 163°
2026-04-18 07:45 16.24759 99.81301 34784 ft 506 kts 163°
2026-04-18 07:45 16.18065 99.83557 34790 ft 506 kts 163°
2026-04-18 07:46 16.11392 99.85800 34773 ft 502 kts 163°
2026-04-18 07:46 16.04779 99.88021 34778 ft 498 kts 163°
2026-04-18 07:47 15.98197 99.90227 34784 ft 496 kts 163°
2026-04-18 07:47 15.91629 99.92428 34784 ft 496 kts 163°
2026-04-18 07:48 15.85058 99.94628 34781 ft 496 kts 163°
2026-04-18 07:48 15.78481 99.96829 34781 ft 497 kts 163°
2026-04-18 07:49 15.71893 99.99032 34780 ft 497 kts 163°
2026-04-18 07:49 15.65307 100.01233 34782 ft 497 kts 163°
2026-04-18 07:50 15.58719 100.03434 34778 ft 498 kts 163°
2026-04-18 07:50 15.52123 100.05635 34778 ft 498 kts 163°
2026-04-18 07:51 15.45577 100.07818 34781 ft 498 kts 163°
2026-04-18 07:51 15.38931 100.10033 34777 ft 498 kts 163°
2026-04-18 07:52 15.32375 100.12217 34782 ft 498 kts 163°
2026-04-18 07:52 15.25777 100.14413 34781 ft 498 kts 163°
2026-04-18 07:53 15.19175 100.16610 34784 ft 498 kts 163°
2026-04-18 07:53 15.12575 100.18804 34783 ft 498 kts 163°
2026-04-18 07:54 15.05970 100.20998 34786 ft 498 kts 163°
2026-04-18 07:54 14.99380 100.23187 34781 ft 497 kts 163°
2026-04-18 07:55 14.92796 100.25372 34783 ft 497 kts 163°
2026-04-18 07:55 14.86217 100.27554 34783 ft 496 kts 163°
2026-04-18 07:56 14.79662 100.29733 34767 ft 487 kts 163°
2026-04-18 07:56 14.76500 100.30785 34759 ft 468 kts 163°
2026-04-18 07:56 14.73456 100.31799 34698 ft 452 kts 163°
2026-04-18 07:57 14.70476 100.32789 34320 ft 446 kts 163°
2026-04-18 07:57 14.67541 100.33764 33881 ft 441 kts 163°
2026-04-18 07:57 14.64628 100.34730 33391 ft 437 kts 163°
2026-04-18 07:57 14.61740 100.35687 32898 ft 434 kts 163°
2026-04-18 07:58 14.56043 100.37574 31954 ft 426 kts 163°
2026-04-18 07:58 14.53260 100.38496 31494 ft 423 kts 163°
2026-04-18 07:58 14.50468 100.39421 31049 ft 420 kts 163°
2026-04-18 07:59 14.47694 100.40340 30584 ft 418 kts 163°
2026-04-18 07:59 14.44935 100.41254 30140 ft 415 kts 163°
2026-04-18 07:59 14.42187 100.42163 29648 ft 413 kts 163°
2026-04-18 07:59 14.39462 100.43065 29164 ft 410 kts 163°
2026-04-18 08:00 14.36760 100.43960 28688 ft 406 kts 163°
2026-04-18 08:00 14.34082 100.44846 28240 ft 402 kts 163°
2026-04-18 08:00 14.31428 100.45724 27803 ft 398 kts 163°
2026-04-18 08:00 14.28798 100.46594 27361 ft 395 kts 163°
2026-04-18 08:01 14.26195 100.47455 26948 ft 391 kts 163°
2026-04-18 08:01 14.23614 100.48308 26539 ft 388 kts 163°
2026-04-18 08:01 14.21049 100.49155 26104 ft 385 kts 163°
2026-04-18 08:01 14.18502 100.49996 25688 ft 383 kts 163°
2026-04-18 08:02 14.15973 100.50832 25260 ft 381 kts 163°
2026-04-18 08:02 14.13457 100.51663 24840 ft 379 kts 163°
2026-04-18 08:02 14.10982 100.52480 24432 ft 377 kts 163°
2026-04-18 08:02 14.08485 100.53305 24012 ft 376 kts 163°
2026-04-18 08:03 14.05995 100.54127 23611 ft 375 kts 163°
2026-04-18 08:03 14.03515 100.54944 23159 ft 373 kts 163°
2026-04-18 08:03 14.01043 100.55760 22711 ft 371 kts 163°
2026-04-18 08:03 13.98596 100.56567 22292 ft 368 kts 163°
2026-04-18 08:04 13.96987 100.57098 22017 ft 366 kts 162°
2026-04-18 08:04 13.93761 100.58161 21483 ft 361 kts 162°
2026-04-18 08:04 13.92177 100.58684 21218 ft 359 kts 162°
2026-04-18 08:04 13.89803 100.59466 20823 ft 356 kts 162°
2026-04-18 08:05 13.87459 100.60238 20526 ft 351 kts 162°
2026-04-18 08:05 13.85145 100.60998 20153 ft 348 kts 162°
2026-04-18 08:05 13.82850 100.61752 19792 ft 345 kts 162°
2026-04-18 08:05 13.80573 100.62500 19418 ft 342 kts 162°
2026-04-18 08:06 13.78309 100.63243 19047 ft 341 kts 162°
2026-04-18 08:06 13.76055 100.63984 18645 ft 340 kts 162°
2026-04-18 08:06 13.73800 100.64724 18241 ft 339 kts 162°
2026-04-18 08:06 13.71557 100.65461 17837 ft 338 kts 162°
2026-04-18 08:07 13.69317 100.66196 17429 ft 336 kts 162°
2026-04-18 08:07 13.67100 100.66924 17042 ft 334 kts 162°
2026-04-18 08:07 13.64895 100.67648 16660 ft 331 kts 162°
2026-04-18 08:07 13.62710 100.68365 16289 ft 328 kts 162°
2026-04-18 08:08 13.60541 100.69077 15908 ft 326 kts 162°
2026-04-18 08:08 13.58391 100.69782 15543 ft 323 kts 162°
2026-04-18 08:08 13.56254 100.70484 15180 ft 321 kts 162°
2026-04-18 08:08 13.54132 100.71179 14813 ft 319 kts 162°
2026-04-18 08:09 13.52021 100.71872 14459 ft 318 kts 163°
2026-04-18 08:09 13.49920 100.72561 14091 ft 316 kts 163°
2026-04-18 08:09 13.47831 100.73246 13727 ft 315 kts 163°
2026-04-18 08:09 13.45746 100.73929 13338 ft 313 kts 163°
2026-04-18 08:10 13.43678 100.74605 12953 ft 311 kts 163°
2026-04-18 08:10 13.41647 100.75270 12591 ft 309 kts 163°
2026-04-18 08:10 13.39616 100.75936 12349 ft 302 kts 162°
2026-04-18 08:10 13.37626 100.76587 12042 ft 299 kts 162°
2026-04-18 08:11 13.35656 100.77232 11715 ft 296 kts 162°
2026-04-18 08:11 13.33698 100.77873 11380 ft 294 kts 162°
2026-04-18 08:11 13.31753 100.78510 11049 ft 293 kts 162°
2026-04-18 08:11 13.29815 100.79144 10714 ft 291 kts 162°
2026-04-18 08:12 13.27893 100.79772 10384 ft 290 kts 162°
2026-04-18 08:12 13.25981 100.80398 10160 ft 284 kts 162°
2026-04-18 08:12 13.24119 100.81007 9955 ft 279 kts 162°
2026-04-18 08:12 13.22272 100.81612 9643 ft 278 kts 161°
2026-04-18 08:13 13.20434 100.82213 9294 ft 277 kts 162°
2026-04-18 08:13 13.18605 100.82811 8967 ft 276 kts 162°
2026-04-18 08:13 13.16781 100.83408 8639 ft 274 kts 162°
2026-04-18 08:13 13.14969 100.84000 8317 ft 273 kts 162°
2026-04-18 08:14 13.13167 100.84589 8004 ft 271 kts 162°
2026-04-18 08:14 13.11377 100.85187 7690 ft 270 kts 158°
2026-04-18 08:14 13.09747 100.86120 7394 ft 267 kts 144°
2026-04-18 08:14 13.08264 100.87260 7110 ft 266 kts 142°
2026-04-18 08:15 13.06779 100.88379 6807 ft 265 kts 145°
2026-04-18 08:15 13.05249 100.89428 6502 ft 264 kts 147°
2026-04-18 08:15 13.03706 100.90455 6187 ft 264 kts 147°
2026-04-18 08:15 13.02167 100.91481 5863 ft 264 kts 147°
2026-04-18 08:16 13.00633 100.92512 5545 ft 263 kts 147°
2026-04-18 08:16 12.99107 100.93545 5233 ft 262 kts 147°
2026-04-18 08:16 12.97592 100.94576 4930 ft 261 kts 147°
2026-04-18 08:16 12.96077 100.95608 4619 ft 261 kts 147°
2026-04-18 08:17 12.94573 100.96633 4311 ft 259 kts 147°
2026-04-18 08:17 12.93073 100.97656 4005 ft 259 kts 147°
2026-04-18 08:17 12.91578 100.98677 3752 ft 257 kts 147°
2026-04-18 08:17 12.90120 100.99678 3621 ft 248 kts 147°
2026-04-18 08:18 12.88707 101.00638 3499 ft 240 kts 147°
2026-04-18 08:18 12.87340 101.01562 3367 ft 232 kts 149°
2026-04-18 08:18 12.85809 101.01964 3107 ft 228 kts 185°
2026-04-18 08:18 12.84261 101.01712 2816 ft 223 kts 186°
2026-04-18 08:19 12.82749 101.01655 2555 ft 212 kts 180°
2026-04-18 08:19 12.81330 101.01603 2291 ft 195 kts 183°
2026-04-18 08:19 12.80043 101.01504 2063 ft 174 kts 184°
2026-04-18 08:19 12.78892 101.01406 1807 ft 157 kts 186°
2026-04-18 08:20 12.77835 101.01318 1642 ft 151 kts 185°
2026-04-18 08:20 12.76795 101.01231 1446 ft 149 kts 185°
2026-04-18 08:20 12.75752 101.01143 1258 ft 153 kts 183°
2026-04-18 08:20 12.74683 101.01054 1052 ft 153 kts 183°
2026-04-18 08:21 12.73641 101.00968 863 ft 148 kts 185°
2026-04-18 08:21 12.72591 101.00882 706 ft 153 kts 185°
2026-04-18 08:21 12.71520 101.00787 470 ft 156 kts 187°
2026-04-18 08:21 12.70429 101.00712 252 ft 156 kts 183°
2026-04-18 08:22 12.69378 101.00615 58 ft 148 kts 186°
2026-04-18 08:22 12.68426 101.00533 41 ft 121 kts 184°
2026-04-18 08:22 12.67740 101.00478 44 ft 79 kts 184°
2026-04-18 08:22 12.67488 101.00455 46 ft 5 kts 198°
2026-04-18 08:23 12.67463 101.00426 47 ft 6 kts 248°
2026-04-18 08:23 12.67463 101.00387 46 ft 6 kts 279°
2026-04-18 08:23 12.67474 101.00343 46 ft 7 kts 281°
2026-04-18 08:23 12.67479 101.00291 45 ft 8 kts 272°
2026-04-18 08:24 12.67461 101.00243 44 ft 8 kts 214°
2026-04-18 08:24 12.67410 101.00230 45 ft 8 kts 185°
2026-04-18 08:24 12.67358 101.00226 41 ft 8 kts 187°
2026-04-18 08:24 12.67294 101.00220 45 ft 11 kts 191°
2026-04-18 08:25 12.67270 101.00140 45 ft 14 kts 275°
2026-04-18 08:25 12.67277 101.00044 45 ft 13 kts 274°
2026-04-18 08:25 12.67326 100.99978 45 ft 13 kts 354°
2026-04-18 08:25 12.67409 100.99980 42 ft 8 kts 349°
2026-04-18 08:26 12.67421 100.99934 45 ft 7 kts 272°
2026-04-18 08:26 12.67424 100.99904 45 ft 3 kts 274°
2026-04-18 08:26 12.67424 100.99899 45 ft 0 kts 274°
2026-04-18 08:26 12.67424 100.99898 45 ft 0 kts 275°